Location: Montague
(41.3030°N, 74.7940°W)
Time: 16:09:17
(UTC-04:00)

Daily predictions for brighter satellites

Satellite Brightness Start Highest point End
(mag) Time Altitude Azimuth Time Altitude Azimuth Time Altitude Azimuth
NOSS 2-2 (E) 3.6 20:43:48 10° SSW 20:47:50 57° ESE 20:52:30 10° NE
deb Chang Zheng 4 4.4 20:50:09 10° NE 20:54:06 32° E 20:58:04 10° SSE
Cosmos 2184 Rocket 4.1 20:49:36 10° S 20:55:38 61° E 21:01:43 10° NNE
CZ-3C R/B 4.3 20:25:21 10° SW 20:56:26 23° SSW 21:04:40 10° SE
ERBS 2.4 20:53:07 10° NW 20:56:36 74° NE 21:00:03 10° SE
CZ-2D R/B 4.4 20:52:59 10° S 20:56:39 46° W 21:00:20 10° NNW
Meteor 2-3 Rocket 3.9 20:51:08 10° S 20:56:46 82° W 21:02:24 10° N
FENGYUN 3A 4.3 20:52:30 10° S 20:57:50 61° W 21:03:11 10° NNW
Cosmos 1356 Rocket 3.4 20:54:51 10° S 20:59:03 71° E 21:03:19 10° NNE
Cosmos 1733 Rocket 3.2 20:54:50 10° S 20:59:08 54° E 21:03:26 10° NNE
Cosmos 2263 Rocket 3.6 20:54:35 10° SW 20:59:58 44° WNW 21:05:21 10° NNE
SL-8 R/B 3.7 20:57:18 10° WSW 21:02:08 84° SSE 21:06:58 10° ENE
YAOGAN 11 4.2 20:58:03 10° SSE 21:02:33 85° ENE 21:07:09 10° NNW
Cosmos 407 Rocket 4.1 20:58:08 10° N 21:03:08 42° ENE 21:08:09 10° SE
Meteor 1-27 Rocket 4.4 21:02:18 10° N 21:07:29 38° ENE 21:12:34 10° SE
PSLV R/B 3.6 21:04:19 10° W 21:07:41 53° SSW 21:10:49 12° ESE
ERS-1 Rocket 3.0 21:04:11 10° SSE 21:09:13 80° ENE 21:14:17 10° NNW
Meteor 2-10 Rocket 3.8 21:03:49 10° N 21:09:40 89° W 21:15:22 10° S
Cosmos 1452 Rocket 4.3 21:05:45 10° SSE 21:10:19 31° E 21:14:54 10° NE
Cosmos 1340 Rocket 3.8 21:08:16 10° SSW 21:12:08 51° WNW 21:16:05 10° N
Cosmos 909 Rocket 4.4 21:07:01 10° SSW 21:13:29 90° S 21:21:21 10° NNE
Abrixas rocket 4.3 21:12:32 10° W 21:15:10 21° SW 21:17:48 10° S
Cosmos 1190 Rocket 4.1 21:10:38 10° NNW 21:15:49 66° ENE 21:20:56 10° SSE
CZ-4 DEB 3.7 21:12:52 10° S 21:15:56 48° W 21:19:02 10° NNW
Cosmos 1782 2.8 21:15:32 10° N 21:19:33 68° E 21:23:34 10° SSE
Atlas Centaur 2 2.9 21:20:21 10° SW 21:22:28 15° S 21:23:49 13° SSE
USA 234 4.3 21:17:50 10° ENE 21:22:30 20° ESE 21:27:08 10° SSE
USA 186 4.3 21:20:27 10° SW 21:22:51 21° W 21:25:22 10° NW
Cosmos 1939 Rocket 2.7 21:20:07 10° SSE 21:23:59 86° ENE 21:27:55 10° NNW
Cosmos 1606 3.2 21:21:37 10° N 21:25:25 45° E 21:28:25 15° SSE
H-2A R/B 2.0 21:21:22 10° SSE 21:25:42 75° ENE 21:29:56 10° N
Cosmos 2074 Rocket 4.3 21:22:45 10° SSW 21:29:01 72° W 21:35:18 10° N
CZ-4B R/B 4.4 21:25:52 10° NE 21:30:05 27° E 21:33:05 15° SE
Cosmos 1892 4.0 21:28:34 10° SSW 21:32:13 42° WNW 21:35:55 10° N
Nadezhda 3 Rocket 4.0 21:38:03 10° N 21:44:25 73° E 21:50:03 14° SSE
Cosmos 676 Rocket 4.0 21:40:47 10° NNW 21:46:00 74° ENE 21:49:43 20° SSE
Cosmos 1184 Rocket 3.3 21:45:10 25° SE 21:46:33 39° E 21:49:41 10° NNE
Okean 2 Rocket 3.6 21:45:32 20° SSE 21:48:04 39° E 21:52:11 10° NNE
Cosmos 2056 Rocket 4.5 21:44:05 10° SW 21:49:05 49° WNW 21:54:04 10° N
CENTAUR R/B 3.9 21:42:35 10° NW 21:50:04 47° WSW 21:57:52 10° S
MetOp-B 4.1 21:46:46 17° SSE 21:51:00 77° ENE 21:56:23 10° N
Cosmos 1174 3.1 21:48:05 10° NNW 21:51:21 69° ENE 21:52:28 34° SE
Cosmos 1954 Rocket 4.1 21:47:03 10° NNW 21:52:14 65° ENE 21:55:30 23° SE
Cosmos 1674 Rocket 4.5 21:49:57 10° NNW 21:54:14 48° W 21:58:30 10° SSW
Sich 1 Rocket 4.1 21:50:14 10° SSW 21:54:46 64° W 21:59:20 10° N
CZ-4 SHROUD 3.2 21:59:35 30° S 22:00:56 77° WSW 22:04:02 10° NNW
Intercosmos 25 3.4 22:02:34 33° SE 22:03:43 45° E 22:06:48 10° NNE
ARGOS 3.2 22:01:08 24° SE 22:04:17 62° ENE 22:09:35 10° N
Cosmos 2341 Rocket 4.0 21:58:03 10° S 22:04:22 84° E 22:10:40 10° N
ATLAS 5 CENTAUR R/B 3.5 22:00:14 10° NW 22:05:47 37° WSW 22:10:53 13° S
SL-27 R/B 4.4 22:03:22 10° NW 22:06:28 27° W 22:09:10 12° SSW
COS B Rocket 3.9 22:02:58 10° N 22:07:04 55° W 22:10:09 14° SSW
Cosmos 1782 Rocket 3.5 22:04:17 18° S 22:07:34 81° E 22:12:04 10° N
Landsat 7 4.4 22:09:27 29° ESE 22:11:17 41° ENE 22:15:45 10° N
Okean 3 3.5 22:08:28 10° N 22:12:46 81° W 22:14:58 28° S
Meteor 2-13 Rocket 4.4 22:07:54 16° S 22:12:53 73° E 22:19:03 10° NNE
PSLV R/B 4.1 22:12:36 27° SSW 22:13:43 41° W 22:16:33 10° NNW
COSMOS 2487 2.4 22:11:14 10° NNW 22:14:52 89° E 22:15:53 45° SSE
DNEPR-1 R/B 4.2 22:09:59 10° NNW 22:15:22 54° NE 22:17:21 32° ESE
Timation 2 Rocket 4.0 22:10:53 10° NNW 22:16:51 63° ENE 22:19:46 30° SE
APEX 3.6 22:17:23 41° SE 22:18:03 46° ESE 22:22:39 10° NE
Cosmos 1238 Rocket 3.0 22:15:32 10° NNW 22:18:38 52° W 22:20:11 28° SSW
Cosmos 2278 Rocket 2.2 22:13:50 10° SSW 22:19:31 88° WNW 22:25:14 10° NNE
SPOT 5 4.0 22:17:34 14° SSW 22:21:49 45° W 22:26:58 10° NNW
Cosmos 1833 Rocket 3.7 22:17:13 10° N 22:22:17 33° ENE 22:24:36 24° E
Cosmos 1844 4.4 22:17:36 10° SW 22:23:15 56° WNW 22:28:59 10° NNE
Cosmos 1023 Rocket 4.4 22:18:11 10° NNW 22:23:19 82° ENE 22:25:28 36° SSE
Cosmos 1975 Rocket 3.1 22:19:00 10° NNW 22:23:20 74° W 22:25:16 32° S
Cosmos 1825 3.2 22:21:19 13° SSW 22:24:27 45° W 22:28:09 10° N
CARTOSAT-1 4.2 22:24:39 34° E 22:25:33 39° ENE 22:29:34 10° N
SL-8 Rocket 3.9 22:21:27 22° S 22:25:37 74° E 22:31:52 10° N
ISS -3.3 22:23:08 10° SW 22:25:57 63° SSW 22:25:57 63° SSW
Terra 2.4 22:25:43 34° ESE 22:27:01 41° ENE 22:31:30 10° N
Cosmos 1844 Rocket 4.1 22:22:51 10° SW 22:28:06 38° WNW 22:33:21 10° N
YAOGAN 6 3.8 22:29:22 24° SW 22:30:49 35° W 22:34:05 10° NNW
Cosmos 1408 4.1 22:29:47 13° SW 22:32:43 34° WNW 22:36:06 10° N
Cosmos 1420 Rocket 4.0 22:31:28 16° SSW 22:35:44 85° WNW 22:41:00 10° NNE
Cosmos 1536 Rocket 4.0 22:31:47 10° N 22:36:07 46° ENE 22:36:45 43° ESE
H-2A R/B 2.2 22:34:39 39° SE 22:36:34 63° ENE 22:41:51 10° N
ASTEX 1 4.3 22:34:34 10° NNE 22:38:56 30° E 22:39:07 30° E
Cosmos 2082 Rocket 2.5 22:33:44 10° NNW 22:39:21 56° ENE 22:41:15 38° ESE
USA 245 4.1 22:40:07 31° SW 22:40:47 35° W 22:44:13 10° NNW
Cosmos 1812 3.9 22:37:22 10° NNE 22:40:32 30° ENE 22:40:32 30° ENE
Cosmos 1242 Rocket 3.2 22:39:43 10° NNW 22:43:17 51° W 22:43:57 44° SW
CZ-4C R/B 3.1 22:49:12 72° SSW 22:49:32 82° WSW 22:53:36 10° NNW
Cosmos 614 Rocket 3.8 22:46:09 10° NNW 22:51:16 86° WSW 22:52:31 52° SSE
SPOT 1/Viking Rocket 4.5 22:49:15 24° SSW 22:51:54 42° W 22:56:51 10° NNW
Cosmos 2297 3.6 22:48:46 26° SSW 22:52:10 87° ESE 22:57:57 10° NNE
SL-08 RB Rocket 4.3 22:51:07 36° SSW 22:52:38 51° W 22:57:10 10° NNW
Cosmos 2151 Rocket 3.5 22:52:35 56° S 22:53:32 89° WNW 22:58:05 10° N
Cosmos 1140 Rocket 4.1 22:51:39 10° NNW 22:56:36 49° WSW 22:58:17 35° SSW
Cosmos 864 Rocket 4.4 22:54:36 36° S 22:57:16 87° E 23:03:28 10° N
Cosmos 2366 rocket 4.1 23:01:48 32° SSW 23:04:54 78° W 23:11:16 10° N
USA 234 3.1 22:59:31 10° NE 23:06:05 83° SE 23:12:37 10° SW
SAR-Lupe-2 4.2 23:11:18 53° N 23:11:18 53° N 23:14:09 10° N
Spot 2 4.1 23:11:29 10° NNE 23:15:27 68° NE 23:15:27 68° NE
Okean 1 Rocket 3.3 23:22:47 59° NE 23:22:47 59° NE 23:26:42 10° NNE
Cosmos 1025 Rocket 4.4 23:18:39 10° NNE 23:21:53 28° ENE 23:21:53 28° ENE
Cosmos 1300 Rocket 3.6 23:23:42 71° NE 23:23:42 71° NE 23:27:46 10° N
Okean 1-7 Rocket 3.9 23:19:36 10° N 23:23:41 59° NE 23:23:41 59° NE
BREEZE-M DEB (TANK) 4.3 23:25:23 10° NW 23:27:36 23° NNE 23:31:59 10° ENE
DMSP B5D2-2 4.5 23:22:29 10° N 23:27:38 60° WNW 23:29:16 40° SW
Cosmos 2369 Rocket 3.8 23:31:03 21° ENE 23:31:03 21° ENE 23:33:51 10° NE
Okean 1 3.8 23:27:10 10° N 23:30:38 61° NNW 23:30:38 61° NNW
IGS 5A 4.4 23:32:35 41° W 23:32:35 41° W 23:36:23 10° NNW
Meteor 1-20 Rocket 4.4 23:33:05 49° SW 23:34:28 67° W 23:40:00 10° N
Cosmos 1000 Rocket 4.3 23:36:51 10° N 23:43:07 81° E 23:44:01 67° SSE
Cosmos 2239 Rocket 4.4 23:47:42 67° SSE 23:48:28 76° E 23:54:47 10° N
